Tracking 19574 objects as of 16-Feb-2019
HD Live streaming from Space Station
objects crossing your sky now

NOAA 8

Track NOAA 8 now!
10-day predictions
NOAA 8 is classified as:


NORAD ID: 13923
Int'l Code: 1983-022A
Perigee: 792.4 km
Apogee: 814.3 km
Inclination: 98.6 °
Period: 100.8 minutes
Semi major axis: 7174 km
RCS: 5.054 m2 (large)
Launch date: March 28, 1983
Source: United States (US)
Launch site: AIR FORCE WESTERN TEST RANGE (AFWTR)
aabbcc
Your satellite tracking list
Your tracking list is empty




NASA's NSSDC Master Catalog

Two Line Element Set (TLE):
1 13923U 83022A   19046.83912176 +.00000003 +00000-0 +18528-4 0  9991
2 13923 098.5712 034.2100 0015270 171.9552 188.1877 14.28665324868549
Source of the keplerian elements: AFSPC